Regional Weather Roundup
Issued by NWS

Home | Current Version | Previous Version | Graphics & Text | Print | Product List | Glossary On
Versions: 1 2 3 4 5 6 7 8 9 10 11 12 13 14 15 16 17 18 19 20 21 22 23 24 25 26 27 28 29 30 31 32 33 34 35 36 37 38 39 40 41 42 43 44 45 46 47 48 49 50
000
ASUS43 KFSD 191710
RWRSD

WEATHER ROUNDUP FOR SOUTH DAKOTA
NATIONAL WEATHER SERVICE SIOUX FALLS SD
1100 AM CST FRI JAN 19 2018

NOTE: "FAIR" INDICATES FEW OR NO CLOUDS BELOW 12,000 FEET WITH NO
SIGNIFICANT WEATHER AND/OR OBSTRUCTIONS TO VISIBILITY.


SDZ001>005-009-010-012>017-191800-
NORTHWEST AND NORTH CENTRAL SOUTH DAKOTA

CITY           SKY/WX    TMP DP  RH WIND       PRES   REMARKS
BUFFALO          N/A     33  28  81 W6        29.62R WCI  28
FAITH            N/A     38  31  76 NW14      29.66R
MOBRIDGE       PTSUNNY   36  28  73 NW8       29.58R
$$

SDZ012>016-024>037-041>051-057-063-072>074-191800-
SOUTHWEST AND SOUTH CENTRAL SOUTH DAKOTA

CITY           SKY/WX    TMP DP  RH WIND       PRES   REMARKS
RAPID CTY ARPT MOSUNNY   41  30  65 N30G38    29.68R
PIERRE         PTSUNNY   36  29  75 NW13      29.60R
CUSTER         MOSUNNY   44  19  36 W13G22    29.68R
ELLSWORTH AFB  PTSUNNY   41  30  65 N24G31    29.69
PHILIP         CLOUDY    39  31  72 NW13      29.67R
PINE RIDGE     CLOUDY    54  27  35 N5        29.69R
SPEARFISH        N/A     37  30  75 NW8       29.73R
WINNER         FAIR      53  33  46 N9        29.60R
$$

SDZ004>011-016>023-039-040-191800-
NORTHEAST SOUTH DAKOTA

CITY           SKY/WX    TMP DP  RH WIND       PRES   REMARKS
ABERDEEN       MOSUNNY   33  26  75 NW3       29.57R
WATERTOWN      CLOUDY    36  30  79 W14       29.54R
BROOKINGS      CLOUDY    36  29  75 SW6       29.53R
SISSETON         N/A     43  30  60 N13       29.50R
$$

SDZ017-020-022-023-036>040-048>070-191800-
SOUTHEAST SOUTH DAKOTA

CITY           SKY/WX    TMP DP  RH WIND       PRES   REMARKS
SIOUX FALLS    CLOUDY    41  32  70 SW7       29.57R
HURON          PTSUNNY   36  30  79 W5        29.56R
CHAMBERLAIN    PTSUNNY   41  34  75 W6        29.58R
MITCHELL       PTSUNNY   40  32  73 S6        29.57R
YANKTON        CLOUDY    47  32  56 CALM      29.58F
$$

ABBREVIATIONS USED IN REMARKS
   TC - TEMPERATURE IN CELSIUS
  WCI - WIND CHILL INDEX
   HX - HEAT INDEX
  VSB - VISIBILITY





USA.gov is the U.S. government's official web portal to all federal, state and local government web resources and services.